Weather History for Bartlesville, OK

Change the Weather History Date:

Saturday, January 19, 2013

  Actual Average Record
Temperature  
Mean Temperature 48 °F -  
Max Temperature 64 °F 45 °F - (-1)
Min Temperature 32 °F 24 °F - (-1)
Degree Days  
Heating Degree Days 17    
Moisture  
Dew Point 32 °F    
Average Humidity 56    
Maximum Humidity 85    
Minimum Humidity 29    
Precipitation  
Precipitation 0.00 in - - ()
Sea Level Pressure  
Sea Level Pressure 30.13 in    
Wind  
Wind Speed 7 mph (SSW)    
Max Wind Speed 12 mph    
Max Gust Speed 18 mph    
Visibility 10 miles    
Events      
Averages and records for this station are not official NWS values.
T = Trace of Precipitation, MM = Missing Value Source: NWS Daily Summary

Daily Weather History Graph

Daily Weather History Graph

Search for Another Location

Airport:

Trip Planner

Search our weather history database for the weather conditions in past years. The results will help you decide how hot, cold, wet, or windy it might be!

Date:

Astronomy

Jan. 19, 2013 Rise Set
Actual Time 7:34 AM CST 5:35 PM CST
Civil Twilight 7:06 AM CST 6:03 PM CST
Nautical Twilight 6:34 AM CST 6:35 PM CST
Astronomical Twilight 6:03 AM CST 7:06 PM CST
Moon 12:01 PM CST 1:11 AM CST
Length of Visible Light 10h 57m
Length of Day
10h 01m
First Quarter, 57% of the Moon is Illuminated
Jan 19
First Quarter
Jan 26
Full
Feb 3
Last Quarter
Feb 10
New
Feb 17
First Quarter

Hourly Weather History & Observations

Time (CST) Temp. Windchill Dew Point Humidity Pressure Visibility Wind Dir Wind Speed Gust Speed Precip Events Conditions
12:53 AM 46.0 °F 41.9 °F 32.0 °F 58% 30.14 in 10.0 mi South 8.1 mph - N/A   Clear
1:53 AM 46.9 °F - 33.1 °F 59% 30.13 in 10.0 mi SSW 11.5 mph 18.4 mph N/A   Clear
2:53 AM 46.0 °F 41.0 °F 33.1 °F 61% 30.12 in 10.0 mi SSW 10.4 mph - N/A   Clear
3:53 AM 45.0 °F 41.2 °F 33.1 °F 63% 30.11 in 10.0 mi South 6.9 mph - N/A   Clear
4:53 AM 44.1 °F 39.5 °F 33.1 °F 65% 30.10 in 10.0 mi South 8.1 mph - N/A   Clear
5:53 AM 43.0 °F 38.2 °F 33.1 °F 68% 30.10 in 10.0 mi South 8.1 mph - N/A   Clear
6:53 AM 42.1 °F 38.4 °F 33.1 °F 70% 30.11 in 10.0 mi South 5.8 mph - N/A   Clear
7:53 AM 34.0 °F 31.0 °F 30.0 °F 85% 30.13 in 10.0 mi South 3.5 mph - N/A   Clear
8:53 AM 45.0 °F 41.8 °F 35.1 °F 68% 30.13 in 10.0 mi South 5.8 mph - N/A   Clear
9:53 AM 51.1 °F - 34.0 °F 52% 30.16 in 10.0 mi SW 8.1 mph - N/A   Clear
10:53 AM 55.0 °F - 33.1 °F 43% 30.15 in 10.0 mi SW 11.5 mph - N/A   Clear
11:53 AM 57.9 °F - 33.1 °F 39% 30.12 in 10.0 mi WSW 8.1 mph - N/A   Clear
12:53 PM 61.0 °F - 33.1 °F 35% 30.09 in 10.0 mi SSW 11.5 mph 17.3 mph N/A   Clear
1:53 PM 64.0 °F - 32.0 °F 30% 30.07 in 10.0 mi SW 8.1 mph - N/A   Clear
2:53 PM 64.9 °F - 32.0 °F 29% 30.06 in 10.0 mi SW 10.4 mph - N/A   Clear
3:53 PM 64.9 °F - 32.0 °F 29% 30.07 in 10.0 mi WSW 8.1 mph - N/A   Clear
4:53 PM 63.0 °F - 32.0 °F 31% 30.09 in 10.0 mi WSW 3.5 mph - N/A   Clear
5:53 PM 55.9 °F - 30.9 °F 39% 30.12 in 10.0 mi WNW 4.6 mph - N/A   Clear
6:53 PM 45.0 °F - 30.9 °F 58% 30.15 in 10.0 mi Calm Calm - N/A   Clear
7:53 PM 41.0 °F - 30.0 °F 65% 30.18 in 10.0 mi Calm Calm - N/A   Clear
8:53 PM 34.0 °F - 28.0 °F 79% 30.20 in 10.0 mi Calm Calm - N/A   Clear
9:53 PM 32.0 °F - 28.0 °F 85% 30.21 in 10.0 mi Calm Calm - N/A   Clear
10:53 PM 35.1 °F - 27.0 °F 72% 30.23 in 10.0 mi Calm Calm - N/A   Clear
11:53 PM 35.1 °F - 27.0 °F 72% 30.23 in 10.0 mi Calm Calm - N/A   Clear